Friday, August 26, 2016
10:17 UTC
  |  Log In   |  Register Free
Airport Search:

Clinton-Sampson County Airport
(KCTZ)

Clinton-Sampson County Airport Diagram
No Airport Diagram Available

FAA data valid effective Jul 21 2016 - Sep 15 2016 (unless otherwise noted).

 
 
 
 
 
 
 
 
 
 
 
 
 
 
Current Aviation Weather for KCTZ

Weather Summary


The most recent METAR observation for CTZ was updated at: 12:55 UTC
METAR for CTZ is not available. Closest METAR is for
METAR

METAR KCTZ 261000Z 00000KT 10SM CLR 21/21 A3010 RMK AO2 T02110211

METAR KCTZ 260940Z 00000KT 10SM CLR 22/22 A3010 RMK AO2 T02150215

METAR KCTZ 260920Z 00000KT 10SM CLR 22/22 A3009 RMK AO2 T02150215

METAR KCTZ 260900Z 00000KT 10SM CLR 22/22 A3010 RMK AO2 T02150215

METAR KCTZ 260840Z 00000KT 10SM CLR 22/22 A3010 RMK AO2 T02150215

METAR KCTZ 260820Z 00000KT 10SM CLR 22/22 A3010 RMK AO2 T02170216

METAR KCTZ 260800Z 00000KT 10SM CLR 22/22 A3010 RMK AO2 T02180216

METAR KCTZ 260740Z 00000KT 10SM CLR 22/22 A3010 RMK AO2 T02180216

METAR KCTZ 260720Z 00000KT 10SM CLR 22/22 A3010 RMK AO2 T02170215

METAR KDPL 261000Z 00000KT 10SM CLR 20/19 A3010 RMK AO2

METAR KEYF 261000Z 00000KT 10SM CLR 21/21 A3010 RMK AO2 T02100207

METAR KFAY 260953Z 22004KT 10SM CLR 23/21 A3009 RMK AO2 SLP182 T02280206

TAF for CTZ is not available.
TAF

KFAY - TAF KFAY 260544Z 2606/2706 VRB04KT P6SM FEW050 SCT250

KFAY - TEMPO 2609/2612 5SM BR SCT004 =

KGSB - TAF KGSB 260400Z 2604/2710 VRB06KT 9999 FEW035 QNH3004INS TX33/2620Z TN20/2609Z =

KFBG - TAF KFBG 260900Z 2609/2715 20005KT 9999 SKC QNH3007INS

KFBG - BECMG 2612/2613 18005KT 9999 SCT050 QNH3002INS

KFBG - BECMG 2621/2622 20006KT 9999 SKC QNH3005INS TX34/2620Z TN21/2610Z =

KPOB - TAF KPOB 260900Z 2609/2715 20006KT 9999 SKC QNH3004INS

KPOB - BECMG 2611/2612 18006KT 9999 SCT050 QNH3002INS

KPOB - BECMG 2621/2622 20006KT 9999 SKC QNH3005INS TX34/2620Z TN21/2610Z =

GlobalAir.com is loading additional information.
 Current Weather at CTZ
71.0 F° (21.5 C°)

North winds at 0.0 mph
Pressure:
30.10 in
Humidity:
100%
Wind:
North at 0.0 mph
Dew Point:
70.7 F° (21.5 C°)
Visibility:
10.00 mi
CTZ NOAA Radar




Find All Airport Services Find A Hotel Find A Rental Car Find A Golf Course Find A Restaurant $100 Hamburger



Airport Weather Forecast for KCTZ

Translated METAR for KCTZ (1000 UTC)
METAR:
KCTZ 261000Z AUTO Clinton-Sampson County, Clinton, NC (KCTZ). Aug 26, 1000Z, Automated. Wind is Calm, 10 statute miles visibility, Clear Skies, Temperature 21°C, Dewpoint 21°C, Altimeter is 30.10. Remarks: automated station with precipitation discriminator hourly temp 21.1°C dewpoint 21.1°C
Conditions at:
KCTZ (Clinton-Sampson County, NC) observed 1000 UTC 26 August 2016
Temperature:
71.0 F° (21.5 C°)
Dewpoint:
not reported - refer to area weather report
Pressure:
30.10 Hg
Winds:
not reported
Visibility:
10.00
Ceiling:
at least 12,000 feet AGL
Clouds:
not reported - refer to area weather report
Remarks:
site is un-manned

Translated TAF for TAF for CTZ is not available. Refer to local area forecast.
FBO's on the Field
FBO Company Facility Photos Services Transportation Aviation Fuel Prices: Prices include tax
Catering Weather Repair Courtesy Rental Type 100LL JetA JetA+ MOGAS 8087
 
Clinton Flying Service

This FBO has not yet been rated
FS:Shell
Last Updated: Jul-26
Login to update fuel prices
SS:
Contact Clinton Flying ServiceMore FBO Information
 
Add another FBO Facility Photos Catering Weather Repair Courtesy Rental Type 100LL JetA JetA+ MOGAS 8087
Services Transportation Aviation Fuel Prices: Prices include tax


model-print
model-print
model-print
model-print